Location: México DF
(19.4326°N, 99.1332°W)
Time: 07:12:25
(UTC+00:00)

ISS - Pass Details

Date: 12 July 2024
Orbit: 410 x 424 km, 51.6° (Epoch: 16 July)

Event Time Altitude Azimuth Distance (km) Brightness Sun altitude
Rises 10:29:42 0° 327° (NNW) 2,343 0.1 -20.8°
Reaches altitude 10° 10:31:49 10° 332° (NNW) 1,483 -0.9 -20.4°
Maximum altitude 10:35:05 53° 50° (NE) 512 -3.0 -19.7°
Drops below altitude 10° 10:38:21 10° 129° (SE) 1,488 -0.8 -19.1°
Sets 10:40:29 0° 134° (SE) 2,352 0.2 -18.6°
